Location: Vinland
(47.7731°N, 122.6974°W)
Time: 22:43:43
(UTC+00:00)

Tiros 1 - Pass Details

Date: 26 March 2023
Orbit: 627 x 660 km, 48.4° (Epoch: 28 May)

Event Time Altitude Azimuth Distance (km) Brightness Sun altitude
Exits shadow 12:09:55 11° 179° (S) 1,999 9.4 -18.9°
Maximum altitude 12:12:53 18° 138° (SE) 1,593 9.3 -18.4°
Drops below altitude 10° 12:16:08 10° 95° (E) 2,076 10.6 -17.9°
Sets 12:19:06 0° 77° (ENE) 2,991 12.2 -17.5°
